TimeMDT,TemperatureF,Dew PointF,Humidity,Sea Level PressureIn,VisibilityMPH,Wind Direction,Wind SpeedMPH,Gust SpeedMPH,PrecipitationIn,Events,Conditions,WindDirDegrees,DateUTC
12:19 AM,28.4,15.8,59,30.22,-9999.0,Calm,Calm,-,N/A,,Clear,0,2013-04-02 06:19:00
12:39 AM,26.6,17.6,69,30.22,-9999.0,Calm,Calm,-,N/A,,Clear,0,2013-04-02 06:39:00
12:59 AM,23.0,21.2,93,30.21,-9999.0,ENE,5.8,-,N/A,,Unknown,70,2013-04-02 06:59:00
1:19 AM,23.0,21.2,93,30.21,-9999.0,ENE,4.6,-,N/A,,Unknown,70,2013-04-02 07:19:00
1:39 AM,23.0,23.0,100,30.21,-9999.0,ENE,9.2,-,N/A,,Unknown,70,2013-04-02 07:39:00
1:59 AM,23.0,21.2,93,30.21,-9999.0,East,10.4,-,N/A,,Mostly Cloudy,80,2013-04-02 07:59:00
2:19 AM,23.0,21.2,93,30.20,-9999.0,East,8.1,-,N/A,,Unknown,80,2013-04-02 08:19:00
2:39 AM,23.0,21.2,93,30.20,-9999.0,ENE,9.2,-,N/A,,Mostly Cloudy,70,2013-04-02 08:39:00
2:59 AM,23.0,21.2,93,30.20,-9999.0,ENE,5.8,-,N/A,,Overcast,70,2013-04-02 08:59:00
3:19 AM,21.2,19.4,93,30.19,-9999.0,North,-9999.0,-,N/A,,Overcast,0,2013-04-02 09:19:00
3:39 AM,21.2,21.2,100,30.18,-9999.0,North,-9999.0,-,N/A,,Mostly Cloudy,0,2013-04-02 09:39:00
3:59 AM,23.0,21.2,93,30.18,-9999.0,North,-9999.0,-,N/A,,Mostly Cloudy,0,2013-04-02 09:59:00
4:19 AM,21.2,19.4,93,30.18,-9999.0,North,-9999.0,-,N/A,,Overcast,0,2013-04-02 10:19:00
4:39 AM,21.2,19.4,93,30.18,-9999.0,North,-9999.0,-,N/A,,Overcast,0,2013-04-02 10:39:00
4:59 AM,21.2,19.4,93,30.17,-9999.0,North,-9999.0,-,N/A,,Overcast,0,2013-04-02 10:59:00
5:19 AM,21.2,19.4,93,30.17,-9999.0,North,-9999.0,-,N/A,,Overcast,0,2013-04-02 11:19:00
5:39 AM,21.2,19.4,93,30.17,-9999.0,North,-9999.0,-,N/A,,Overcast,0,2013-04-02 11:39:00
5:59 AM,21.2,19.4,93,30.17,-9999.0,North,-9999.0,-,N/A,,Overcast,0,2013-04-02 11:59:00
6:19 AM,21.2,19.4,93,30.17,-9999.0,North,-9999.0,-,N/A,,Overcast,0,2013-04-02 12:19:00
6:39 AM,21.2,19.4,93,30.17,-9999.0,North,-9999.0,-,N/A,,Overcast,0,2013-04-02 12:39:00
6:59 AM,21.2,19.4,93,30.17,-9999.0,North,-9999.0,-,N/A,,Overcast,0,2013-04-02 12:59:00
7:19 AM,21.2,19.4,93,30.17,-9999.0,North,-9999.0,-,N/A,,Overcast,0,2013-04-02 13:19:00
7:39 AM,21.2,19.4,93,30.17,-9999.0,North,-9999.0,-,N/A,,Overcast,0,2013-04-02 13:39:00
7:59 AM,21.2,19.4,93,30.17,-9999.0,North,-9999.0,-,N/A,,Overcast,0,2013-04-02 13:59:00
8:39 AM,23.0,21.2,93,30.17,-9999.0,North,-9999.0,-,N/A,,Overcast,0,2013-04-02 14:39:00
8:59 AM,23.0,21.2,93,30.17,-9999.0,North,-9999.0,-,N/A,,Mostly Cloudy,0,2013-04-02 14:59:00
9:19 AM,23.0,21.2,93,30.17,-9999.0,North,-9999.0,-,N/A,,Overcast,0,2013-04-02 15:19:00
9:39 AM,23.0,21.2,93,30.17,-9999.0,North,-9999.0,-,N/A,,Overcast,0,2013-04-02 15:39:00
9:59 AM,23.0,21.2,93,30.16,-9999.0,North,-9999.0,-,N/A,,Overcast,0,2013-04-02 15:59:00
10:19 AM,23.0,23.0,100,30.16,-9999.0,North,-9999.0,-,N/A,,Overcast,0,2013-04-02 16:19:00
10:39 AM,23.0,21.2,93,30.16,-9999.0,ENE,13.8,-,N/A,,Overcast,60,2013-04-02 16:39:00
10:59 AM,23.0,21.2,93,30.16,-9999.0,ENE,11.5,-,N/A,,Overcast,70,2013-04-02 16:59:00
11:19 AM,23.0,21.2,93,30.17,-9999.0,East,8.1,-,N/A,,Overcast,80,2013-04-02 17:19:00
11:39 AM,23.0,21.2,93,30.16,-9999.0,ENE,12.7,-,N/A,,Overcast,70,2013-04-02 17:39:00
11:59 AM,23.0,21.2,93,30.16,-9999.0,ENE,15.0,-,N/A,Thunderstorm,Thunderstorm,70,2013-04-02 17:59:00
12:19 PM,23.0,21.2,93,30.15,-9999.0,ENE,16.1,-,N/A,,Overcast,70,2013-04-02 18:19:00
12:39 PM,24.8,23.0,93,30.15,-9999.0,ENE,15.0,-,N/A,,Overcast,60,2013-04-02 18:39:00
12:59 PM,24.8,23.0,93,30.15,-9999.0,ENE,18.4,-,N/A,,Overcast,70,2013-04-02 18:59:00
1:19 PM,24.8,23.0,93,30.14,-9999.0,ENE,17.3,-,N/A,,Overcast,70,2013-04-02 19:19:00
1:39 PM,24.8,23.0,93,30.14,-9999.0,ENE,15.0,-,N/A,,Overcast,60,2013-04-02 19:39:00
1:59 PM,23.0,21.2,93,30.14,-9999.0,NE,11.5,-,N/A,,Unknown,50,2013-04-02 19:59:00
2:19 PM,24.8,23.0,93,30.15,-9999.0,East,9.2,-,N/A,Thunderstorm,Thunderstorm,90,2013-04-02 20:19:00
2:39 PM,24.8,23.0,93,30.14,-9999.0,NE,11.5,-,N/A,,Overcast,50,2013-04-02 20:39:00
2:59 PM,26.6,23.0,86,30.14,-9999.0,NE,8.1,-,N/A,,Unknown,50,2013-04-02 20:59:00
3:19 PM,24.8,23.0,93,30.14,-9999.0,East,5.8,-,N/A,,Unknown,90,2013-04-02 21:19:00
3:39 PM,24.8,23.0,93,30.14,-9999.0,NNE,5.8,-,N/A,,Overcast,30,2013-04-02 21:39:00
3:59 PM,26.6,23.0,86,30.14,-9999.0,NNE,5.8,-,N/A,,Overcast,30,2013-04-02 21:59:00
4:19 PM,24.8,23.0,93,30.14,-9999.0,ENE,3.5,-,N/A,,Overcast,60,2013-04-02 22:19:00
4:39 PM,24.8,23.0,93,30.14,-9999.0,ENE,5.8,-,N/A,,Unknown,60,2013-04-02 22:39:00
4:59 PM,24.8,23.0,93,30.14,-9999.0,NE,10.4,-,N/A,,Overcast,50,2013-04-02 22:59:00
5:19 PM,23.0,23.0,100,30.14,-9999.0,ENE,17.3,-,N/A,,Overcast,60,2013-04-02 23:19:00
5:39 PM,23.0,21.2,93,30.14,-9999.0,ENE,15.0,-,N/A,,Overcast,60,2013-04-02 23:39:00
5:59 PM,23.0,21.2,93,30.14,-9999.0,ENE,17.3,-,N/A,Thunderstorm,Thunderstorm,60,2013-04-02 23:59:00
6:19 PM,23.0,21.2,93,30.14,-9999.0,ENE,18.4,-,N/A,,Overcast,60,2013-04-03 00:19:00
6:39 PM,23.0,21.2,93,30.15,-9999.0,ENE,16.1,-,N/A,,Overcast,60,2013-04-03 00:39:00
6:59 PM,23.0,21.2,93,30.16,-9999.0,NE,15.0,-,N/A,,Overcast,50,2013-04-03 00:59:00
7:19 PM,23.0,21.2,93,30.16,-9999.0,ENE,18.4,-,N/A,,Overcast,60,2013-04-03 01:19:00
7:39 PM,21.2,19.4,93,30.16,-9999.0,NE,16.1,-,N/A,,Overcast,50,2013-04-03 01:39:00
7:59 PM,21.2,19.4,93,30.16,-9999.0,North,-9999.0,-,N/A,,Overcast,0,2013-04-03 01:59:00
8:19 PM,21.2,19.4,93,30.17,-9999.0,North,-9999.0,-,N/A,,Overcast,0,2013-04-03 02:19:00
8:39 PM,21.2,19.4,93,30.17,-9999.0,North,-9999.0,-,N/A,,Overcast,0,2013-04-03 02:39:00
8:59 PM,21.2,19.4,93,30.18,-9999.0,North,-9999.0,-,N/A,,Overcast,0,2013-04-03 02:59:00
9:19 PM,21.2,17.6,86,30.19,-9999.0,North,-9999.0,-,N/A,,Overcast,0,2013-04-03 03:19:00
9:39 PM,21.2,17.6,86,30.20,-9999.0,North,-9999.0,-,N/A,,Overcast,0,2013-04-03 03:39:00
9:59 PM,21.2,19.4,93,30.20,-9999.0,North,-9999.0,-,N/A,,Overcast,0,2013-04-03 03:59:00
10:19 PM,21.2,19.4,93,30.20,-9999.0,North,-9999.0,-,N/A,,Overcast,0,2013-04-03 04:19:00
10:39 PM,19.4,17.6,93,30.20,-9999.0,North,-9999.0,-,N/A,,Overcast,0,2013-04-03 04:39:00
10:59 PM,19.4,17.6,93,30.20,-9999.0,North,-9999.0,-,N/A,,Overcast,0,2013-04-03 04:59:00
11:19 PM,19.4,17.6,93,30.20,-9999.0,North,-9999.0,-,N/A,,Overcast,0,2013-04-03 05:19:00
11:39 PM,19.4,17.6,93,30.20,-9999.0,North,-9999.0,-,N/A,,Overcast,0,2013-04-03 05:39:00
11:59 PM,19.4,17.6,93,30.20,-9999.0,North,-9999.0,-,N/A,,Overcast,0,2013-04-03 05:59:00